Flag for Canada Weather past 2 weeks in Sidney, British Columbia, Canada

Now
36 °F

Passing clouds.


Feels Like: 30 °F
Forecast: 40 / 48 °F
Wind: 7 mph from West

Location: Victoria Int. Airportb. C.

Current Time: Jan 30, 2015 at 5:20:00 AM

Latest Report: Jan 30, 2015 at 4:00 AM


Visibility: 30 mi

Pressure: 30.33 "Hg

Humidity: 93%

Dew point: 34 °F

Location of SidneyLocation

Historic Weather in Sidney — Graph

°F

Sidney temperature yesterday

Maximum temperature yesterday: 50 °F (at 3:00 PM)
Minimum temperature yesterday: 36 °F (at 8:00 PM)
Average temperature yesterday: 41 °F

Past Weeks' High & Low Weather Summary

 TemperatureHumidityPressure
High59 °F (Jan 24, 4:00 PM)100% (Jan 15, 4:00 AM)30.47 "Hg (Jan 15, 4:00 AM)
Low32 °F (Jan 21, 4:00 AM)58% (Jan 16, 12:00 PM)29.47 "Hg (Jan 18, 1:00 AM)
Average44 °F92%30.17 "Hg
* Reported Jan 15 4:00 AM — Jan 30 4:00 AM, Sidney, Weather by CustomWeather, © 2014

Note: Actual official high and low records may vary slightly from our data, if they occured in-between our weather recording intervals... More about our weather records

Advertising

Sidney weather history for previous 24 hours

 ConditionsComfort  
Time TempWeatherWind HumidityBarometerVisibility
4:00 AM
Jan 30
36 °FPassing clouds.7 mph93%30.33 "Hg30 mi
3:00 AM36 °FPassing clouds.3 mph93%30.33 "Hg30 mi
2:00 AM37 °FPassing clouds.6 mph93%30.34 "Hg30 mi
1:00 AM37 °FPassing clouds.5 mph93%30.34 "Hg30 mi
12:00 AM37 °FPassing clouds.7 mph93%30.34 "Hg30 mi
11:00 PM
Jan 29
37 °FPassing clouds.5 mph100%30.34 "Hg30 mi
10:00 PM36 °FPassing clouds.3 mph100%30.33 "Hg30 mi
9:00 PM36 °FPassing clouds.6 mph100%30.33 "Hg30 mi
8:00 PM36 °FPassing clouds.2 mph100%30.33 "Hg30 mi
7:00 PM37 °FPassing clouds.3 mph93%30.33 "Hg30 mi
6:00 PM39 °FPassing clouds.5 mph93%30.32 "Hg30 mi
5:00 PM46 °FPassing clouds.2 mph82%30.33 "Hg30 mi
4:00 PM48 °FPassing clouds.5 mph76%30.33 "Hg30 mi
3:00 PM50 °FPassing clouds.No wind76%30.33 "Hg30 mi
2:00 PM48 °FPassing clouds.3 mph82%30.35 "Hg30 mi
1:00 PM48 °FPassing clouds.5 mph82%30.37 "Hg30 mi
12:00 PM46 °FPartly sunny.7 mph87%30.38 "Hg30 mi
11:00 AM45 °FPartly sunny.3 mph87%30.40 "Hg30 mi
10:00 AM43 °FPartly sunny.8 mph93%30.41 "Hg30 mi
9:00 AM43 °FPartly sunny.6 mph93%30.40 "Hg30 mi
8:00 AM41 °FPartly sunny.5 mph93%30.39 "Hg30 mi
7:00 AM41 °FPartly cloudy.6 mph93%30.39 "Hg30 mi
6:00 AM39 °FPassing clouds.5 mph100%30.39 "Hg30 mi
5:00 AM37 °FPassing clouds.5 mph100%30.40 "Hg30 mi
Weather by CustomWeather, © 2014

See weather overviewHow to use our weather pages